Regional Weather Roundup
Issued by NWS Green Bay, WI

Home | Current Version | Previous Version | Graphics & Text | Print | Product List | Glossary Off
Versions: 1 2 3 4 5 6 7 8 9 10 11 12 13 14 15 16 17 18 19 20 21 22 23 24 25 26 27 28 29 30 31 32 33 34 35 36 37 38 39 40 41 42 43 44 45 46 47 48 49 50

000
ASUS43 KGRB 262011
RWRGRB

NORTH-CENTRAL AND NORTHEAST WISCONSIN REGIONAL WEATHER ROUNDUP
NATIONAL WEATHER SERVICE GREEN BAY WI
300 PM CDT FRI MAY 26 2017

WIZ005-009-010>012-018-019-262100-
NORTH CENTRAL WISCONSIN

CITY           SKY/WX    TMP DP  RH WIND       PRES   REMARKS
IRONWOOD       CLOUDY    69  55  60 S6        29.77S
MANITOWISH WTR PTSUNNY   68  54  60 S14G21    29.79S
ARBOR VITAE    LGT RAIN  67  57  69 S8        29.80F
EAGLE RIVER    RAIN      64  53  68 SE5       29.81S
LAND O LAKES   CLOUDY    67  52  58 SE7       29.83S
RHINELANDER    CLOUDY    69  50  50 S10       29.82F
PHILLIPS       PTSUNNY   67  56  67 S10       29.79S
ANTIGO         CLOUDY    68  56  66 S9        29.83S
TOMAHAWK       CLOUDY    67  54  63 SE3       29.81S
MERRILL        CLOUDY    70  55  59 S8        29.82S
$$

WIZ013-073-262100-
NORTHEAST WISCONSIN

CITY           SKY/WX    TMP DP  RH WIND       PRES   REMARKS
IRON MOUNTAIN  CLOUDY    68  52  56 S7        29.82R
MARINETTE      CLOUDY    66  54  65 SE8       29.85S
OCONTO         CLOUDY    67  55  64 SE9       29.84R
$$

WIZ017-030-035>037-045-262100-
CENTRAL WISCONSIN

CITY           SKY/WX    TMP DP  RH WIND       PRES   REMARKS
MEDFORD        PTSUNNY   68  55  64 S7        29.80F
WAUSAU         CLOUDY    70  55  59 S9        29.80F
MOSINEE        MOSUNNY   72  55  56 S9        29.83S
MARSHFIELD     CLOUDY    72  54  53 S15       29.79F
WISC RAPIDS    CLOUDY    72  54  53 S10       29.82S
STEVENS POINT  CLOUDY    69  53  55 SE13      29.82S
WAUPACA        CLOUDY    73  57  57 SE7       29.83S
SHAWANO        CLOUDY    73  54  52 S6        29.83S
CLINTONVILLE   CLOUDY    70  50  49 S9        29.83S
WAUTOMA        CLOUDY    71  56  58 S8        29.82F
$$

WIZ038-039-048-051-262100-
FOX VALLEY

CITY           SKY/WX    TMP DP  RH WIND       PRES   REMARKS
NWS GREEN BAY  CLOUDY    69  60  73 SE12      29.83S
APPLETON       PTSUNNY   70  52  52 SE8       29.83R
OSHKOSH        CLOUDY    69  56  62 E9        29.83R
FOND DU LAC    CLOUDY    70  53  54 SE8       29.84R
$$

WIZ022-050-052-262100-
EAST CENTRAL WISCONSIN

CITY           SKY/WX    TMP DP  RH WIND       PRES   REMARKS
EPHRAIM        FAIR      63  53  70 S6        29.84F
WASHINGTON ISL MOCLDY    64  51  64 S6        29.84S
STURGEON BAY   MOSUNNY   63  52  67 SE7       29.86S
MANITOWOC      CLOUDY    60  52  74 S6        29.87R
SHEBOYGAN      CLOUDY    62  55  77 S5        29.86R
$$

LMZ563-521-522-541>543-262100-
LAKESHORE

STATION/POSITION TIME  TEMP    WIND        PRES    VSBY  WAVE
                       AIR SEA DIR/SP/G                  HT/PER
                 (UTC) (F)     (DEG/KT/KT) (MB)    (MI)  (FT/S)
SHEBOYGAN LKSHOR 2000   49     170/  6/  7 1011.1S
KEWAUNEE LKSHORE 1948   49     160/  4/  5 1011.0F
NORTHPORT PIER   1940   60     150/  6/  9 1010.8S
N MID LAKE BUOY  1950   43 42  200/  6/  6 1012.1F         0
CHAMBERS ISLAND  1940   60     350/  4/  5 1010.2S
MENOMINEE LKSHOR 1948          130/  5/  6 1009.8S
$$



USA.gov is the U.S. government's official web portal to all federal, state and local government web resources and services.